Home > Weather > Bruchsal > Past weeks

Flag for Germany Weather for the Past 2 Weeks in Bruchsal, Baden-Württemberg, Germany

Now
46 °F

Passing clouds.


Feels Like: 44 °F
Forecast: 38 / 54 °F
Wind: 5 mph from South

Location: Mannheim City

Current Time: Feb 5, 2016 at 11:23:53 PM

Latest Report: Feb 5, 2016 at 9:20 PM


Visibility: N/A

Pressure: 30.21 "Hg

Humidity: 93%

Dew point: 45 °F

Location of BruchsalLocation

Historic Weather in Bruchsal — Graph

°F

Bruchsal Temperature Yesterday

Maximum temperature yesterday: 43 °F (at 6:20 PM)
Minimum temperature yesterday: 39 °F (at 5:50 AM)
Average temperature yesterday: 41 °F

High & Low Weather Summary for the Past Weeks

 TemperatureHumidityPressure
High59 °F (Jan 26, 3:20 PM)100% (Jan 23, 7:20 AM)30.63 "Hg (Jan 23, 7:20 AM)
Low21 °F (Jan 22, 5:50 AM)50% (Jan 29, 1:50 PM)29.86 "Hg (Jan 30, 3:50 PM)
Average46 °F77%30.24 "Hg
* Reported Jan 21 9:20 PM — Feb 5 9:20 PM, Bruchsal, Weather by CustomWeather, © 2016

Note: Actual official high and low records may vary slightly from our data, if they occured in-between our weather recording intervals... More about our weather records

Advertising

Bruchsal Weather History for the Previous 24 Hours

 ConditionsComfort  
Time TempWeatherWind HumidityBarometerVisibility
9:20 PM
Fri, Feb 5
46 °FPassing clouds.5 mph93%30.21 "HgN/A
8:20 PM46 °FPassing clouds.3 mph93%30.24 "HgN/A
7:50 PM48 °FPassing clouds.3 mph87%30.24 "HgN/A
7:20 PM48 °FPassing clouds.5 mph87%30.24 "HgN/A
6:50 PM50 °FMostly cloudy.5 mph82%30.27 "HgN/A
6:20 PM50 °FOvercast.7 mph82%30.27 "HgN/A
5:50 PM48 °FPassing clouds.5 mph87%30.27 "HgN/A
5:20 PM50 °FPartly sunny.6 mph82%30.27 "HgN/A
4:50 PM50 °FPartly sunny.6 mph82%30.27 "HgN/A
4:20 PM50 °FOvercast.8 mph82%30.27 "HgN/A
3:50 PM50 °FOvercast.7 mph82%30.27 "HgN/A
3:20 PM50 °FOvercast.7 mph82%30.27 "HgN/A
2:50 PM50 °FOvercast.7 mph82%30.27 "HgN/A
2:20 PM50 °FPartly sunny.3 mph82%30.27 "HgN/A
1:50 PM50 °FPartly sunny.5 mph82%30.30 "HgN/A
1:20 PM48 °FPartly sunny.7 mph82%30.30 "HgN/A
12:50 PM48 °FScattered clouds.7 mph82%30.30 "HgN/A
12:20 PM46 °FMore clouds than sun.7 mph87%30.33 "HgN/A
11:50 AM45 °FPartly sunny.6 mph93%30.36 "HgN/A
11:20 AM45 °FPartly sunny.6 mph87%30.36 "Hg6 mi
10:50 AM43 °FLight rain. Overcast.6 mph93%30.36 "HgN/A
10:20 AM43 °FOvercast.6 mph93%30.36 "HgN/A
9:50 AM43 °FPartly sunny.6 mph93%30.36 "HgN/A
9:20 AM41 °FOvercast.6 mph100%30.36 "HgN/A
8:50 AM41 °FOvercast.5 mph100%30.36 "HgN/A
8:20 AM41 °FMostly cloudy.3 mph100%30.36 "HgN/A
7:50 AM41 °FOvercast.3 mph100%30.36 "HgN/A
7:20 AM41 °FClear.3 mph100%30.36 "Hg5 mi
6:50 AM41 °FOvercast.3 mph93%30.36 "HgN/A
6:20 AM41 °FOvercast.3 mph93%30.36 "HgN/A
5:50 AM41 °FPassing clouds.3 mph93%30.36 "HgN/A
Weather by CustomWeather, © 2016

See weather overviewHow to use our weather pages